Location: Bothwell
(41.7170°N, 112.2589°W)
Time: 15:18:50
(UTC+00:00)

Vanguard 2 - Pass Details

Date: 12 May 2026
Orbit: 553 x 2894 km, 32.9° (Epoch: 8 June)

Event Time Altitude Azimuth Distance (km) Brightness Sun altitude
Rises 16:15:11 0° 276° (W) 5,860 11.6 43.4°
Reaches altitude 10° 16:20:37 10° 264° (W) 4,414 11.1 44.4°
Maximum altitude 16:28:27 22° 221° (SW) 2,854 10.5 45.8°
Drops below altitude 10° 16:34:08 10° 174° (S) 3,075 11.0 46.8°
Sets 16:37:07 0° 158° (SSE) 3,717 11.4 47.3°
